Location: Unspecified
(0.0000°N, 0.0000°E)
Time: 19:36:05
(UTC+00:00)

COSMOS 2497 - Visible Passes

Search period start: 15 May 2026 00:00
Search period end: 25 May 2026 00:00
Orbit: 1478 x 1511 km, 82.4° (Epoch: 15 May)

Date Brightness Start Highest point End Pass type
(mag) Time Alt. Az. Time Alt. Az. Time Alt. Az.
15 May ? 04:33:20 10° NNE 04:41:42 53° E 04:50:06 10° SSE visible
16 May ? 03:46:00 10° NE 03:52:30 24° E 03:59:01 10° SE visible
16 May ? 18:16:31 10° SW 18:22:40 21° W 18:28:49 10° NW visible
17 May ? 04:51:01 10° N 04:59:42 90° WSW 05:08:28 10° S visible
18 May ? 04:02:27 10° NNE 04:10:30 43° E 04:18:35 10° SSE visible
19 May ? 03:15:50 10° NE 03:21:19 18° E 03:26:47 10° SE visible
19 May ? 05:09:22 10° NNW 05:17:43 53° W 05:26:09 10° SSW visible
20 May ? 04:19:51 10° N 04:28:31 75° E 04:37:14 10° S visible
21 May ? 03:31:43 10° NNE 03:39:19 34° E 03:46:56 10° SSE visible
21 May ? 05:28:31 10° NW 05:35:44 30° W 05:43:02 10° SSW visible
22 May ? 02:46:12 10° ENE 02:50:07 14° E 02:54:02 10° ESE visible
22 May ? 04:37:57 10° NNW 04:46:31 66° W 04:55:11 10° S visible
23 May ? 03:48:49 10° N 03:57:19 61° E 04:05:54 10° SSE visible
24 May ? 03:01:08 10° NNE 03:08:08 27° E 03:15:07 10° SE visible
24 May ? 04:56:45 10° NNW 05:04:32 38° W 05:12:25 10° SSW visible
